Location: NovaLab Observatory
(42.8167°N, 71.2500°W)
Time: 16:30:04
(UTC-04:00)

Daily predictions for brighter satellites

Satellite Brightness Start Highest point End
(mag) Time Altitude Azimuth Time Altitude Azimuth Time Altitude Azimuth
Cosmos 1634 Rocket 4.3 20:32:54 10° N 20:39:04 54° ENE 20:45:14 10° SSE
Meteor 1-29 4.1 20:37:15 10° NE 20:40:12 25° E 20:43:08 10° SSE
Aureole 3 4.1 20:38:22 10° SE 20:40:40 20° E 20:42:57 10° NE
GPS 2-04 Rocket1 3.8 20:37:26 10° WSW 20:40:41 27° S 20:43:47 10° SE
Cosmos 1346 Rocket 2.8 20:37:00 10° N 20:40:59 78° E 20:44:58 10° SSE
Cosmos 2150 Rocket 4.3 20:35:51 10° SSW 20:41:13 78° WNW 20:46:33 10° NNE
Lacrosse 5 rocket 1.1 20:38:47 10° SSW 20:42:14 50° SE 20:45:46 10° NE
Helios 1A 3.2 20:40:32 10° SSE 20:44:38 56° ENE 20:48:46 10° N
USA 186 2.8 20:43:15 10° S 20:45:50 40° W 20:48:37 10° NNW
NOSS 3-2 (A) 4.2 20:40:12 10° SW 20:46:10 61° NW 20:52:47 10° NNE
ERS-1 Rocket 3.7 20:44:30 10° SE 20:49:04 36° ENE 20:53:39 10° N
ARGOS 4.3 20:47:56 10° ESE 20:52:27 28° ENE 20:56:58 10° N
Cosmos 1939 Rocket 3.0 20:50:07 10° SSE 20:54:16 86° WSW 20:58:25 10° NNW
USA 215 3.8 20:51:30 10° ESE 20:57:49 52° NNE 21:04:09 10° NW
Cosmos 1408 3.5 20:55:02 10° SSE 20:58:21 31° E 21:01:42 10° NNE
Spot 1 4.4 20:54:38 10° SSE 20:59:25 72° ENE 21:04:28 10° N
ISS -3.6 20:58:02 10° WSW 21:01:16 74° NNW 21:04:32 10° NE
Resurs 01 Rocket 3.6 21:00:39 10° SSW 21:04:28 28° W 21:08:19 10° NW
Tiangong 2 2.9 21:04:09 10° W 21:06:41 21° SSW 21:09:02 11° SSE
NOSS 3-2 (C) 4.3 21:01:36 10° SW 21:07:34 58° NW 21:14:10 10° NNE
Cosmos 2279 Rocket 4.2 21:05:35 10° N 21:11:45 57° E 21:17:51 10° SSE
Meteor 2-3 Rocket 4.2 21:06:14 10° SSW 21:11:55 66° WNW 21:17:34 10° N
CZ-4B DEB 2.4 21:09:43 10° SSE 21:12:38 88° ENE 21:15:35 10° NNW
Okean 1-7 3.0 21:10:19 10° N 21:14:45 78° E 21:19:08 10° SSE
Cosmos 1825 2.4 21:11:33 10° SSE 21:15:11 48° E 21:18:51 10° NNE
CENTAUR R/B 2.5 21:12:23 10° SSW 21:18:18 67° ESE 21:25:04 10° NE
Cosmos 1782 2.7 21:16:31 10° N 21:20:31 75° E 21:24:10 12° SSE
SPOT 5 3.7 21:17:37 14° SE 21:21:51 42° ENE 21:26:48 10° N
Cosmos 2344 3.8 21:14:51 10° S 21:22:05 47° ESE 21:29:55 10° NE
Envisat 4.4 21:19:43 10° SSW 21:24:22 36° W 21:29:03 10° NNW
MetOp-A 4.2 21:19:56 12° SSE 21:24:48 66° ENE 21:30:07 10° N
Cosmos 372 Rocket 3.9 21:20:20 10° S 21:25:23 63° ESE 21:30:27 10° NNE
H-2A ROCKET BODY 3.9 21:29:12 10° SSW 21:31:29 14° SSE 21:32:06 14° SSE
SPOT 1/Viking Rocket 4.2 21:29:53 18° SE 21:33:21 40° ENE 21:38:12 10° N
DNEPR-1 R/B 3.7 21:29:21 10° SSW 21:34:35 88° ESE 21:39:05 10° NE
Cosmos 1943 Rocket 2.1 21:29:03 10° SSW 21:34:38 80° ESE 21:40:12 10° NNE
Cosmos 1269 Rocket 4.0 21:31:50 10° NNW 21:37:10 85° ENE 21:41:09 18° SSE
Cosmos 1125 Rocket 3.6 21:35:19 10° SSW 21:40:34 80° WNW 21:45:49 10° NNE
deb Kosmos-1763 4.2 21:36:56 10° NNW 21:40:42 77° WSW 21:43:07 21° SSE
Cosmos 1862 3.3 21:38:56 17° S 21:41:50 58° E 21:45:44 10° NNE
Helios 1B rocket 3.7 21:38:01 10° N 21:41:56 43° WNW 21:45:49 10° SW
Cosmos 1733 Rocket 3.3 21:40:35 21° SSE 21:43:10 46° E 21:47:19 10° NNE
Cosmos 1340 2.7 21:45:24 10° NNW 21:49:12 77° W 21:51:33 22° S
Lacrosse 4 Rocket 1.5 21:47:39 10° NNW 21:52:10 83° WSW 21:54:34 27° SSE
Cosmos 2369 Rocket 3.7 21:55:03 10° SW 22:00:19 39° WNW 22:05:39 10° NNE
ATLAS CENTAUR R/B 2.8 22:02:49 21° E 22:02:49 21° E 22:04:44 10° ENE
SL-08 RB Rocket 3.7 22:00:56 25° S 22:03:42 85° WSW 22:08:24 10° NNW
Cosmos 1346 4.3 22:03:19 10° NNE 22:05:14 26° NE 22:05:14 26° NE
Cosmos 1606 4.3 22:03:51 10° NNW 22:07:13 30° W 22:10:13 12° SSW
Cosmos 494 Rocket 4.2 22:02:19 10° NNW 22:07:29 58° ENE 22:09:45 32° SE
Cosmos 1833 4.4 22:02:36 10° NNW 22:08:22 71° WSW 22:11:43 26° S
Cosmos 1867 3.8 22:03:14 10° NNW 22:08:39 61° NE 22:11:15 30° ESE
H-2A R/B 2.1 22:11:05 27° SSE 22:14:09 87° WSW 22:19:31 10° NNW
CARTOSAT-1 4.0 22:16:12 37° ESE 22:17:21 47° ENE 22:21:31 10° N
Cosmos 2297 Rocket 4.1 22:14:30 10° N 22:18:22 18° NE 22:21:29 12° E
ATLAS 5 CENTAUR R/B 3.0 22:13:27 10° NW 22:19:17 51° WSW 22:22:52 25° S
Cosmos 1674 Rocket 3.4 22:15:20 10° N 22:19:41 89° E 22:21:11 40° S
Cosmos 1378 Rocket 3.9 22:15:38 10° N 22:19:58 49° ENE 22:20:59 41° ESE
Lacrosse 5 rocket 3.6 22:18:41 10° W 22:21:37 23° NNW 22:24:38 10° NNE
Landsat 7 3.7 22:21:54 39° SSE 22:23:41 80° ENE 22:28:28 10° N
Cosmos 1656 Rocket 3.7 22:25:46 10° SSW 22:31:14 80° WNW 22:36:48 10° NNE
BREEZE-M DEB (TANK) 3.7 22:27:52 10° WNW 22:31:40 82° SSW 22:40:24 23° SE
ARGOS 4.2 22:28:53 18° SSW 22:32:30 40° W 22:37:33 10° NNW
H-2A R/B 2.5 22:33:43 40° E 22:34:10 42° ENE 22:38:04 10° N
Okean 3 3.3 22:30:40 10° N 22:34:51 80° E 22:35:35 59° SSE
Nadezhda 4 Rocket 4.3 22:30:14 15° SSW 22:35:30 65° W 22:41:38 10° N
Cosmos 1092 Rocket 3.9 22:31:57 26° S 22:35:36 89° E 22:41:47 10° N
IGS 5A 3.4 22:36:31 59° SE 22:37:10 73° ENE 22:41:19 10° N
ISS -1.1 22:35:36 10° WNW 22:38:10 21° NNW 22:40:44 10° NE
Terra 1.7 22:37:34 49° SSE 22:38:50 79° ENE 22:43:38 10° N
USA 215 3.6 22:37:58 33° SSE 22:40:48 54° SW 22:47:13 10° NW
Cosmos 1627 Rocket 4.5 22:42:23 38° SSE 22:44:56 71° E 22:51:16 10° NNE
Cosmos 1553 Rocket 4.5 22:43:54 10° N 22:50:00 46° ENE 22:51:45 37° ESE
Meteor 1-20 Rocket 4.4 22:51:21 47° SE 22:52:37 58° E 22:58:11 10° NNE
Cosmos 1437 4.1 22:53:25 10° NNW 22:56:09 34° W 22:56:09 34° W
Cosmos 1908 Rocket 3.9 22:55:35 44° SW 22:56:48 64° W 23:01:14 10° N
Meteor 1-25 Rocket 4.2 22:59:05 49° S 23:00:41 75° E 23:06:33 10° NNE
ARGOS Delta rocket 4.0 22:56:38 10° NNE 23:00:40 49° E 23:00:40 49° E
CZ-2C R/B 4.0 23:00:41 10° NE 23:04:11 23° E 23:04:11 23° E
Cosmos 1633 4.1 23:07:12 28° NE 23:07:12 28° NE 23:09:14 10° NNE
Milstar 3 4.0 22:58:33 10° WSW 23:05:32 28° SSW 23:05:32 28° SSW
Cosmos 2251 Rocket 4.0 23:01:24 10° NNW 23:06:28 52° WSW 23:07:41 43° SSW
Okean 2 Rocket 3.1 23:08:46 66° ENE 23:08:46 66° ENE 23:12:59 10° NNE
Cosmos 2227 Rocket 2.7 23:03:12 10° NNW 23:08:41 48° ENE 23:10:00 40° E
CENTAUR R/B 4.4 23:04:02 10° W 23:09:34 31° NW 23:15:47 10° NNE
DELTA 2 DEB (DPAF) 4.2 23:14:24 67° ENE 23:14:26 67° ENE 23:18:53 10° N
Cosmos 2219 3.6 23:10:20 10° NNW 23:15:57 55° WSW 23:17:12 46° SSW
Spot 4 3.7 23:17:07 75° S 23:17:33 86° WSW 23:22:24 10° NNW
deb Chang Zheng 4 3.5 23:15:12 10° NNE 23:19:40 83° WNW 23:19:47 81° WSW
CZ-4 R/B 3.6 23:15:26 10° NNE 23:20:06 83° WNW 23:20:28 75° SW
Cosmos 1812 3.5 23:17:05 10° NNW 23:20:33 47° WNW 23:20:33 47° WNW
Cosmos 2266 Rocket 4.5 23:20:16 40° ESE 23:20:54 42° E 23:26:36 10° NNE
Cosmos 1782 Rocket 4.0 23:23:54 52° WSW 23:24:19 55° W 23:28:38 10° N
USA 229 DEB 4.4 23:27:13 35° ESE 23:27:13 35° ESE 23:32:51 10° NE
USA 229 4.4 23:27:21 35° ESE 23:27:21 35° ESE 23:32:56 10° NE
GEOS 3 Rocket 4.0 23:30:20 47° SW 23:30:37 48° WSW 23:35:40 10° NW
Cosmos 2369 3.8 23:33:38 56° ESE 23:33:38 56° ESE 23:39:05 10° NNE
Cosmos 1980 Rocket 4.1 23:35:37 16° E 23:35:37 16° E 23:37:43 10° ENE
Meteor 1-11 Rocket 4.0 23:38:32 54° ESE 23:38:53 55° E 23:44:41 10° NNE
Meteor 2-4 Rocket 4.1 23:34:45 10° N 23:39:55 46° ENE 23:40:11 46° E
ATLAS CENTAUR R/B 2.9 23:39:00 25° W 23:40:22 31° NW 23:43:50 10° NNE
Gbstr 26 Del rocket 3.5 23:36:08 10° NW 23:39:33 52° NW 23:39:33 52° NW
Cosmos 1536 4.5 23:43:24 26° NE 23:43:24 26° NE 23:45:42 10° NNE
Cosmos 405 Rocket 4.3 23:39:21 10° NNW 23:41:56 28° WNW 23:41:56 28° WNW
Cosmos 1655 Rocket 4.3 23:42:10 41° SW 23:44:10 59° W 23:50:21 10° N
Cosmos 1624 Rocket 4.5 23:45:16 48° E 23:45:16 48° E 23:49:49 10° NNE
Cosmos 1975 Rocket 4.2 23:41:14 10° NNW 23:45:18 35° W 23:45:23 35° W
Cosmos 407 Rocket 4.2 23:41:08 10° N 23:46:12 42° ENE 23:46:45 41° E
CZ-4C R/B 4.0 23:46:58 54° WNW 23:46:58 54° WNW 23:50:28 10° NNW
ALOS 2 3.3 23:53:43 48° NE 23:53:43 48° NE 23:57:25 10° N
BREEZE M DEB (TANK) 4.4 23:51:55 10° W 23:56:28 30° NNW 23:57:09 27° N
